Location: Betpouey
(42.8833°N, 0.0333°E)
Time: 21:45:43
(UTC+00:00)

Meteor 1-10 Rocket - Pass Details

Date: 01 December 2020
Orbit: 836 x 910 km, 81.3° (Epoch: 19 January)

Event Time Altitude Azimuth Distance (km) Brightness Sun altitude
Rises 18:16:10 0° 181° (S) 3,430 7.5 -19.5°
Reaches altitude 10° 18:18:36 10° 179° (S) 2,486 6.8 -20.0°
Maximum altitude 18:24:12 69° 97° (E) 906 4.1 -21.0°
Enters shadow 18:28:24 18° 17° (NNE) 1,964 5.8 -21.7°
